Weather Roundup
Issued by NWS

Home | Current Version | Previous Version | Graphics & Text | Print | Product List | Glossary Off
Versions: 1 2 3 4 5 6 7 8 9 10 11 12 13 14 15 16 17 18 19 20 21 22 23 24 25 26 27 28 29 30 31 32 33 34 35 36 37 38 39 40 41 42 43 44 45 46 47 48 49 50

497
NZUS93 KARX 301359
HRRWXR

CURRENT HOURLY OBSERVATIONS ACROSS
MUCH OF THE UPPER MISSISSIPPI VALLEY
NATIONAL WEATHER SERVICE LA CROSSE WI
900 AM CDT SAT JUL 30 2016


...SOUTHEAST MINNESOTA...


CITY           SKY/WX    TMP DP  RH WIND       PRES   REMARKS
ROCHESTER      SUNNY     71  65  81 SE7       30.05S
ROCHESTER/MAYO FAIR      69  66  92 SE3       30.04S
WINONA         PTSUNNY   70  61  73 E3        30.03F
AUSTIN         PTSUNNY   70  64  83 E3        30.03S
ALBERT LEA     CLOUDY    70  64  83 CALM      30.04R
DODGE CENTER   MOSUNNY   73  64  73 S3        30.04S
PRESTON        SUNNY     68  61  79 E6        30.05S
OWATONNA       CLOUDY    70  64  83 CALM      30.04S
FARIBAULT      CLOUDY    70  64  83 E3        30.04S
$$

...ELSEWHERE IN MINNESOTA...


CITY           SKY/WX    TMP DP  RH WIND       PRES   REMARKS
MINNEAPOLIS    CLOUDY    69  62  78 E7        30.03F
INTNL FALLS    MOSUNNY   66  57  72 VRB5      30.04F
DULUTH         CLOUDY    64  59  83 SE5       30.08S
RED WING       PTSUNNY   73  64  73 SE5       30.02F
REDWOOD FALLS  SUNNY     67  57  70 CALM      30.04R
MANKATO        SUNNY     70  55  60 CALM      30.04R
WORTHINGTON    SUNNY     67  57  70 CALM      30.07R
FAIRMONT       SUNNY     66  57  72 CALM      30.04R
$$

...SOUTHWEST WISCONSIN...


CITY           SKY/WX    TMP DP  RH WIND       PRES   REMARKS
LA CROSSE      MOSUNNY   70  60  70 CALM      30.03S
PRAIRIE DU CHI CLOUDY    67  60  79 CALM      30.02S
BOSCOBEL       CLOUDY    68  65  90 CALM      30.03S
LONE ROCK      NOT AVBL
PLATTEVILLE    CLOUDY    68  66  92 E7        30.03R
FORT MC COY    MOSUNNY   69  60  74 E7        30.05S
MAUSTON-NEW LI PTSUNNY   66  62  87 CALM      30.04S
VIROQUA        CLOUDY    68  61  79 E5        30.05R
WIS DELLS      NOT AVBL
$$

...ELSEWHERE IN WISCONSIN...


CITY           SKY/WX    TMP DP  RH WIND       PRES   REMARKS
MILWAUKEE      PTSUNNY   71  63  75 NE8       30.02R
MADISON        CLOUDY    70  61  73 NE7       30.03R
GREEN BAY      SUNNY     71  63  75 E9        30.06S
EAU CLAIRE     NOT AVBL
BLACK RVR FLS  FAIR      67  59  75 E5        30.05S
MEDFORD        SUNNY     64  60  86 E7        30.08F
WAUSAU         SUNNY     66  59  78 SE7       30.07S
WIS RAPIDS     MOSUNNY   68  58  70 E6        30.07S
MARSHFIELD     CLOUDY    66  58  75 E8        30.07S
RICE LAKE      PTSUNNY   67  59  73 E3        30.09S
$$

...NORTHEAST IOWA...


CITY           SKY/WX    TMP DP  RH WIND       PRES   REMARKS
WATERLOO       CLOUDY    69  64  84 SE5       30.01S
DUBUQUE        CLOUDY    66  65  96 NE6       30.03R FOG
DECORAH        CLOUDY    68  64  88 E6        30.03S
MASON CITY     CLOUDY    67  65  93 CALM      30.06R
CHARLES CITY   CLOUDY    68  68 100 E6        30.04R
OELWEIN        MOSUNNY   70  66  88 NE5       30.02F
$$

...ELSEWHERE IN IOWA...


CITY           SKY/WX    TMP DP  RH WIND       PRES   REMARKS
DES MOINES     CLOUDY    71  65  81 NE3       30.02R
IOWA CITY      CLOUDY    72  66  81 NE6       30.00S
FORT DODGE     PTSUNNY   70  64  83 E3        30.04S
MARSHALLTOWN   CLOUDY    67  67 100 NE5       30.02R FOG
CEDAR RAPIDS   CLOUDY    70  68  93 NE6       29.99S
$$

...NORTHERN ILLINOIS...


CITY           SKY/WX    TMP DP  RH WIND       PRES   REMARKS
CHICAGO-OHARE  PTSUNNY   72  66  81 NE10      29.97S
CHICAGO-MIDWAY PTSUNNY   72  65  78 NE9       29.97R
MOLINE         CLOUDY    72  66  81 NE5       29.99R
ROCKFORD       PTSUNNY   71  65  81 E8        30.01S
PEORIA         CLOUDY    72  68  87 CALM      29.98R
$$

NOTE: "FAIR" INDICATES FEW OR NO CLOUDS BELOW 12,000 FEET WITH NO
SIGNIFICANT WEATHER AND/OR OBSTRUCTIONS TO VISIBILITY. WIND
SPEEDS ARE IN MILES-PER-HOUR.




USA.gov is the U.S. government's official web portal to all federal, state and local government web resources and services.